Weather History for OKBK - January, 2014

Change the Weather History Date:

Friday, January 31, 2014

  Actual Average Record
Temperature  
Mean Temperature 60 °F -  
Max Temperature 71 °F 69 °F 89 °F (1999)
Min Temperature 50 °F 48 °F 39 °F (2000)
Degree Days  
Heating Degree Days 4    
Growing Degree Days 10 (Base 50)    
Moisture  
Dew Point 47 °F    
Average Humidity 63    
Maximum Humidity 94    
Minimum Humidity 26    
Precipitation  
Precipitation 0.00 in 0.02 in - ()
Sea Level Pressure  
Sea Level Pressure 30.09 in    
Wind  
Wind Speed 7 mph ()    
Max Wind Speed 18 mph    
Max Gust Speed -    
Visibility 6.4 miles    
Events      
Averages and records for this station are not official NWS values.
T = Trace of Precipitation, MM = Missing Value Source: Averaged Metar Reports

Daily Weather History Graph

Daily Weather History Graph

Search for Another Location

Airport or City:

Trip Planner

Search our weather history database for the weather conditions in past years. The results will help you decide how hot, cold, wet, or windy it might be!

Date:

Astronomy

Jan. 31, 2014 Rise Set
Actual Time 6:37 AM AST 5:25 PM AST
Civil Twilight 6:12 AM AST 5:50 PM AST
Nautical Twilight 5:44 AM AST 6:18 PM AST
Astronomical Twilight 5:16 AM AST 6:46 PM AST
Moon 6:37 AM AST (1/31) 6:13 PM AST (1/31)
Length of Visible Light 11h 37m
Length of Day
10h 47m
New Moon, 0% of the Moon is Illuminated
Jan 31
New Moon
Feb 6
First Quarter
Feb 15
Full
Feb 22
Last Quarter
Mar 1
New

Hourly Weather History & Observations

Time (AST) Temp. Dew Point Humidity Pressure Visibility Wind Dir Wind Speed Gust Speed Precip Events Conditions
12:00 AM 53 °F 50 °F 84% 30.10 in 6 mi West 5.8 mph - -  
12:00 AM 53.6 °F 50.0 °F 88% 30.09 in - West 5.8 mph - N/A   Clear
1:00 AM 51.8 °F 48.2 °F 88% 30.09 in - WSW 4.6 mph - N/A   Clear
2:00 AM 51.8 °F 50.0 °F 94% 30.09 in - Calm Calm - N/A   Clear
3:00 AM 51.8 °F 48.2 °F 88% 30.06 in - West 5.8 mph - N/A   Clear
4:00 AM 51.8 °F 48.2 °F 88% 30.09 in - West 3.5 mph - N/A   Clear
5:00 AM 50.0 °F 48.2 °F 94% 30.09 in - West 4.6 mph - N/A   Clear
6:00 AM 50 °F 48 °F 90% 30.12 in 6 mi Calm Calm - -   Clear
6:00 AM 50.0 °F 48.2 °F 94% 30.09 in - Calm Calm - N/A   Clear
7:00 AM 50.0 °F 48.2 °F 94% 30.12 in 3.7 mi Calm Calm - N/A   Unknown
8:00 AM 53.6 °F 50.0 °F 88% 30.12 in 4.3 mi West 3.5 mph - N/A   Unknown
9:00 AM 59 °F 50 °F 64% 30.16 in 5 mi NW 8.1 mph - -   Haze
9:00 AM 59.0 °F 50.0 °F 72% 30.15 in 5.0 mi NW 8.1 mph - N/A   Unknown
10:00 AM 64.4 °F 48.2 °F 56% 30.15 in - NW 11.5 mph - N/A   Clear
11:00 AM 66.2 °F 48.2 °F 52% 30.12 in - NNW 16.1 mph - N/A   Clear
12:00 PM 69 °F 46 °F 32% 30.11 in 6 mi NNW 18.4 mph - -   Clear
12:00 PM 68.0 °F 46.4 °F 46% 30.09 in - NNW 18.4 mph - N/A   Clear
1:00 PM 69.8 °F 44.6 °F 40% 30.06 in - NNW 16.1 mph - N/A   Clear
2:00 PM 71.6 °F 44.6 °F 38% 30.04 in - NNW 16.1 mph - N/A   Clear
3:00 PM 71 °F 44 °F 26% 30.05 in 6 mi NNW 18.4 mph - -   Clear
3:00 PM 71.6 °F 44.6 °F 38% 30.04 in - NNW 18.4 mph - N/A   Clear
4:00 PM 69.8 °F 42.8 °F 38% 30.04 in - North 15.0 mph - N/A   Clear
5:00 PM 68.0 °F 42.8 °F 40% 30.04 in - NNW 16.1 mph - N/A   Clear
6:00 PM 67 °F 42 °F 29% 30.07 in 6 mi North 13.8 mph - -   Clear
6:00 PM 66.2 °F 42.8 °F 43% 30.06 in - North 13.8 mph - N/A   Clear
7:00 PM 60.8 °F 44.6 °F 55% 30.06 in - North 12.7 mph - N/A   Clear
8:00 PM 62.6 °F 48.2 °F 59% 30.09 in - North 15.0 mph - N/A   Clear
9:00 PM 61 °F 48 °F 51% 30.09 in 16 mi North 9.2 mph - -   Clear
9:00 PM 60.8 °F 48.2 °F 63% 30.09 in - North 10.4 mph - N/A   Clear
10:00 PM 60.8 °F 46.4 °F 59% 30.09 in - NNW 11.5 mph - N/A   Clear
11:00 PM 57.2 °F 46.4 °F 67% 30.06 in - NNW 8.1 mph - N/A   Clear